Hill City, KS

4:01 PM CST on February 24, 2017 (GMT -0600)
Hill City Municipal

Weather History for KHLC - August, 2013

Change the Weather History Date:

Wednesday, August 28, 2013

  Actual Average Record
Temperature  
Mean Temperature 82 °F 74 °F  
Max Temperature 95 °F 88 °F 107 °F (2000)
Min Temperature 68 °F 61 °F 43 °F (1988)
Cooling Degree Days 17    
Growing Degree Days 32 (Base 50)    
Moisture  
Dew Point 62 °F    
Average Humidity 53    
Maximum Humidity 78    
Minimum Humidity 30    
Precipitation  
Precipitation 0.00 in 0.10 in 0.65 in (2003)
Month to date precipitation 0.73 2.61  
Year to date precipitation 12.91 17.58  
Sea Level Pressure  
Sea Level Pressure 29.93 in    
Wind  
Wind Speed 7 mph (South)    
Max Wind Speed 14 mph    
Max Gust Speed 18 mph    
Visibility 10 miles    
Events      
T = Trace of Precipitation, MM = Missing Value Source: NWS Daily Summary

Daily Weather History Graph

Daily Weather History Graph

Search for Another Location

Airport or City:

Trip Planner

Search our weather history database for the weather conditions in past years. The results will help you decide how hot, cold, wet, or windy it might be!

Date:

Astronomy

Aug. 28, 2013 Rise Set
Actual Time 7:04 AM CDT 8:15 PM CDT
Civil Twilight 6:36 AM CDT 8:43 PM CDT
Nautical Twilight 6:03 AM CDT 9:16 PM CDT
Astronomical Twilight 5:28 AM CDT 9:51 PM CDT
Moon 12:14 AM CDT (8/28) 2:54 PM CDT (8/28)
Length of Visible Light 14h 06m
Length of Day
13h 11m
Waning Gibbous, 47% of the Moon is Illuminated
Aug 28
Waning Gibbous
Sep 5
New
Sep 12
First Quarter
Sep 19
Full
Sep 26
Last Quarter

Hourly Weather History & Observations

Time (CDT) Temp. Heat Index Dew Point Humidity Pressure Visibility Wind Dir Wind Speed Gust Speed Precip Events Conditions
12:53 AM 77.0 °F - 59.0 °F 54% 29.91 in 10.0 mi SSW 9.2 mph - N/A   Clear
1:53 AM 73.9 °F - 60.1 °F 62% 29.93 in 10.0 mi SSW 5.8 mph - N/A   Clear
2:53 AM 73.0 °F - 60.1 °F 64% 29.92 in 10.0 mi SSW 6.9 mph - N/A   Clear
3:53 AM 71.1 °F - 60.1 °F 68% 29.93 in 10.0 mi SSW 5.8 mph - N/A   Clear
4:53 AM 71.1 °F - 61.0 °F 70% 29.94 in 10.0 mi SSW 6.9 mph - N/A   Clear
5:53 AM 70.0 °F - 62.1 °F 76% 29.94 in 10.0 mi WSW 4.6 mph - N/A   Clear
6:53 AM 69.1 °F - 62.1 °F 78% 29.94 in 10.0 mi SW 4.6 mph - N/A   Clear
7:53 AM 71.1 °F - 64.0 °F 78% 29.94 in 10.0 mi SW 3.5 mph - N/A   Clear
8:53 AM 77.0 °F - 64.9 °F 66% 29.96 in 10.0 mi Variable 3.5 mph - N/A   Clear
9:53 AM 80.1 °F 82.1 °F 66.0 °F 62% 29.96 in 10.0 mi SW 8.1 mph - N/A   Clear
10:53 AM 82.0 °F 83.4 °F 64.0 °F 54% 29.96 in 10.0 mi SSW 6.9 mph - N/A   Clear
11:53 AM 87.1 °F 87.8 °F 63.0 °F 44% 29.96 in 10.0 mi South 8.1 mph - N/A   Clear
12:53 PM 90.0 °F 90.6 °F 63.0 °F 40% 29.95 in 10.0 mi South 10.4 mph - N/A   Clear
1:53 PM 89.1 °F 88.8 °F 60.1 °F 38% 29.95 in 10.0 mi South 11.5 mph 18.4 mph N/A   Clear
2:53 PM 91.9 °F 91.2 °F 59.0 °F 33% 29.93 in 10.0 mi South 13.8 mph 17.3 mph N/A   Clear
3:53 PM 93.9 °F 92.9 °F 57.9 °F 30% 29.91 in 10.0 mi South 10.4 mph 17.3 mph N/A   Clear
4:53 PM 93.9 °F 92.9 °F 57.9 °F 30% 29.90 in 10.0 mi ESE 8.1 mph - N/A   Clear
5:53 PM 95.0 °F 95.2 °F 61.0 °F 32% 29.89 in 10.0 mi SE 6.9 mph - N/A   Clear
6:53 PM 93.0 °F 92.3 °F 59.0 °F 32% 29.90 in 10.0 mi SE 11.5 mph - N/A   Clear
7:53 PM 89.1 °F 89.0 °F 61.0 °F 39% 29.91 in 10.0 mi SE 9.2 mph - N/A   Clear
8:53 PM 82.9 °F 84.0 °F 63.0 °F 51% 29.93 in 10.0 mi ESE 6.9 mph - N/A   Clear
9:53 PM 80.1 °F 81.5 °F 63.0 °F 56% 29.94 in 8.0 mi ESE 5.8 mph - N/A   Clear
10:53 PM 80.1 °F 81.9 °F 64.9 °F 60% 29.94 in 10.0 mi SSE 8.1 mph - N/A   Clear
11:53 PM 79.0 °F - 64.9 °F 62% 29.94 in 10.0 mi SE 4.6 mph - N/A   Clear